Altoona, PA

12:50 PM EST on November 22, 2019 (GMT -0500)
Altoona-Blair County

Weather History for KAOO - September, 2019

Change the Weather History Date:

Sunday, September 8, 2019

  Actual Average Record
Temperature  
Mean Temperature 64 °F 65 °F  
Max Temperature 76 °F 75 °F 93 °F (2015)
Min Temperature 51 °F 54 °F 39 °F (1986)
Degree Days  
Heating Degree Days 1 3  
Month to date heating degree days 6 17  
Since 1 July heating degree days 15 49  
Cooling Degree Days 0 2  
Month to date cooling degree days 18 21  
Year to date cooling degree days 663 500  
Growing Degree Days 14 (Base 50)    
Moisture  
Dew Point 54 °F    
Average Humidity 70    
Maximum Humidity 93    
Minimum Humidity 46    
Precipitation  
Precipitation 0.00 in 0.12 in 5.55 in (2004)
Month to date precipitation 0.55 0.93  
Year to date precipitation 30.24 24.86  
Sea Level Pressure  
Sea Level Pressure 30.09 in    
Wind  
Wind Speed 3 mph (West)    
Max Wind Speed 15 mph    
Max Gust Speed 19 mph    
Visibility 9 miles    
Events      
T = Trace of Precipitation, MM = Missing Value Source: NWS Daily Summary

Daily Weather History Graph

Daily Weather History Graph

Search for Another Location

Airport or City:

Astronomy

Sep. 08, 2019 Rise Set
Actual Time 6:47 AM EDT 7:34 PM EDT
Civil Twilight 6:19 AM EDT 8:01 PM EDT
Nautical Twilight 5:46 AM EDT 8:34 PM EDT
Astronomical Twilight 5:13 AM EDT 9:07 PM EDT
Moon 4:41 PM EDT (9/8) 1:24 AM EDT (9/8)
Length of Visible Light 13h 41m
Length of Day
12h 46m
Waxing Gibbous, 75% of the Moon is Illuminated
Sep 8
Waxing Gibbous
Sep 14
Full
Sep 21
Last Quarter
Sep 28
New
Oct 5
First Quarter

Hourly Weather History & Observations

Time (EDT) Temp. Dew Point Humidity Pressure Visibility Wind Dir Wind Speed Gust Speed Precip Events Conditions
12:53 AM 59.0 °F 52.0 °F 78% 30.03 in 10.0 mi West 3.5 mph - N/A   Clear
1:53 AM 55.9 °F 52.0 °F 87% 30.03 in 10.0 mi Calm Calm - N/A   Clear
2:53 AM 54.0 °F 50.0 °F 86% 30.03 in 10.0 mi SSW 5.8 mph - N/A   Clear
3:53 AM 55.0 °F 51.1 °F 86% 30.02 in 10.0 mi Calm Calm - N/A   Clear
4:53 AM 53.1 °F 50.0 °F 89% 30.02 in 7.0 mi Calm Calm - N/A   Clear
5:53 AM 54.0 °F 51.1 °F 90% 30.04 in 8.0 mi NW 3.5 mph - N/A   Clear
6:53 AM 53.1 °F 50.0 °F 89% 30.08 in 5.0 mi WNW 3.5 mph - N/A   Clear
7:53 AM 55.9 °F 53.1 °F 90% 30.09 in 6.0 mi Calm Calm - N/A   Clear
8:53 AM 60.1 °F 55.9 °F 86% 30.10 in 9.0 mi WSW 3.5 mph - N/A   Clear
9:53 AM 64.0 °F 55.0 °F 73% 30.10 in 10.0 mi South 5.8 mph - N/A   Clear
10:53 AM 68.0 °F 55.9 °F 65% 30.10 in 10.0 mi West 4.6 mph - N/A   Clear
11:53 AM 71.1 °F 55.0 °F 57% 30.10 in 10.0 mi Variable 3.5 mph - N/A   Clear
12:53 PM 73.0 °F 54.0 °F 51% 30.09 in 10.0 mi Calm Calm - N/A   Scattered Clouds
1:53 PM 75.0 °F 53.1 °F 46% 30.09 in 10.0 mi WNW 11.5 mph - N/A   Clear
2:53 PM 75.9 °F 54.0 °F 46% 30.07 in 10.0 mi WNW 8.1 mph - N/A   Partly Cloudy
3:53 PM 73.9 °F 53.1 °F 48% 30.08 in 10.0 mi WNW 10.4 mph - N/A   Partly Cloudy
4:53 PM 73.9 °F 53.1 °F 48% 30.08 in 10.0 mi WNW 10.4 mph - N/A   Partly Cloudy
5:53 PM 73.0 °F 54.0 °F 51% 30.10 in 10.0 mi NW 6.9 mph - N/A   Mostly Cloudy
6:53 PM 71.1 °F 54.0 °F 55% 30.11 in 10.0 mi NW 3.5 mph - N/A   Mostly Cloudy
7:53 PM 68.0 °F 55.9 °F 65% 30.13 in 10.0 mi Calm Calm - N/A   Mostly Cloudy
8:53 PM 66.9 °F 55.9 °F 68% 30.14 in 10.0 mi Calm Calm - N/A   Overcast
9:53 PM 66.0 °F 55.0 °F 68% 30.16 in 10.0 mi Calm Calm - N/A   Overcast
10:53 PM 66.0 °F 55.0 °F 68% 30.16 in 10.0 mi Calm Calm - N/A   Overcast
11:53 PM 64.0 °F 57.0 °F 78% 30.16 in 10.0 mi Calm Calm - N/A   Overcast